Total_Precipitation_Accumulation
0.00 0.00 0.00 0.00 0.00 0.00 0.00 0.00 0.00 0.00 0.00 0.00 0.00 0.00 0.01 0.03 0.07 0.13 0.25 0.35 0.38 0.36 0.29 0.24 0.24 0.32 0.28 0.26 0.31 0.29 0.35 0.56 0.71 0.65 0.67 0.72 0.68 0.55 0.38 0.24 0.19 0.18 0.17 0.23
0.00 0.00 0.00 0.00 0.00 0.00 0.00 0.00 0.00 0.00 0.00 0.00 0.00 0.00 0.02 0.05 0.07 0.07 0.13 0.19 0.26 0.43 0.43 0.39 0.45 0.48 0.41 0.46 0.59 0.73 0.97 1.13 1.00 0.99 1.07 1.05 0.98 0.72 0.53 0.38 0.30 0.25 0.24 0.26
0.00 0.00 0.00 0.00 0.00 0.00 0.00 0.00 0.00 0.00 0.00 0.00 0.00 0.00 0.02 0.08 0.13 0.15 0.13 0.14 0.14 0.16 0.20 0.25 0.36 0.52 0.70 0.86 1.02 1.23 1.45 1.40 1.20 1.17 1.13 0.96 0.92 0.78 0.65 0.56 0.42 0.31 0.29 0.32
0.00 0.00 0.00 0.00 0.00 0.00 0.00 0.00 0.00 0.00 0.00 0.00 0.00 0.00 0.01 0.03 0.06 0.11 0.16 0.17 0.12 0.09 0.15 0.24 0.35 0.56 0.87 1.20 1.49 1.65 1.63 1.53 1.36 1.28 1.16 1.06 0.93 0.76 0.65 0.55 0.41 0.34 0.33 0.36
0.01 0.00 0.00 0.00 0.00 0.00 0.00 0.00 0.00 0.00 0.00 0.00 0.00 0.00 0.00 0.00 0.01 0.03 0.10 0.16 0.16 0.19 0.25 0.34 0.48 0.68 0.80 1.02 1.28 1.46 1.48 1.40 1.24 1.13 1.02 0.88 0.73 0.62 0.53 0.42 0.35 0.34 0.39 0.36
0.03 0.02 0.01 0.01 0.00 0.00 0.00 0.00 0.00 0.00 0.00 0.00 0.00 0.00 0.00 0.01 0.01 0.03 0.10 0.16 0.22 0.33 0.37 0.44 0.57 0.73 0.78 0.81 0.91 1.03 1.08 1.03 0.93 0.83 0.75 0.74 0.72 0.67 0.58 0.50 0.43 0.41 0.39 0.33
0.05 0.03 0.03 0.03 0.02 0.01 0.00 0.01 0.04 0.02 0.00 0.00 0.00 0.00 0.01 0.02 0.03 0.06 0.13 0.23 0.33 0.46 0.53 0.64 0.76 0.82 0.88 0.83 0.81 0.83 0.85 0.77 0.64 0.53 0.46 0.48 0.48 0.49 0.50 0.50 0.47 0.47 0.47 0.45
0.12 0.04 0.05 0.07 0.06 0.04 0.03 0.05 0.13 0.09 0.02 0.01 0.01 0.03 0.06 0.04 0.04 0.09 0.14 0.20 0.33 0.47 0.57 0.71 0.79 0.69 0.60 0.55 0.54 0.55 0.52 0.43 0.33 0.31 0.31 0.31 0.31 0.35 0.38 0.39 0.42 0.45 0.47 0.46
0.05 0.04 0.05 0.07 0.08 0.07 0.11 0.15 0.12 0.19 0.14 0.11 0.05 0.07 0.10 0.09 0.13 0.16 0.20 0.26 0.30 0.37 0.41 0.44 0.42 0.43 0.43 0.42 0.40 0.35 0.32 0.27 0.22 0.20 0.21 0.21 0.21 0.24 0.25 0.26 0.28 0.31 0.31 0.26
0.00 0.02 0.03 0.03 0.04 0.06 0.11 0.21 0.30 0.40 0.36 0.26 0.12 0.13 0.24 0.29 0.30 0.30 0.33 0.51 0.48 0.34 0.33 0.34 0.36 0.37 0.34 0.29 0.27 0.25 0.27 0.28 0.23 0.18 0.16 0.14 0.13 0.12 0.14 0.17 0.17 0.15 0.13 0.10
0.01 0.03 0.04 0.05 0.07 0.11 0.20 0.26 0.34 0.42 0.40 0.34 0.26 0.25 0.21 0.41 0.43 0.39 0.43 0.47 0.39 0.23 0.17 0.16 0.16 0.17 0.21 0.29 0.32 0.26 0.24 0.22 0.17 0.11 0.07 0.05 0.04 0.03 0.03 0.03 0.03 0.03 0.02 0.02
0.02 0.03 0.03 0.05 0.07 0.07 0.15 0.27 0.37 0.44 0.41 0.37 0.32 0.32 0.17 0.27 0.28 0.26 0.30 0.24 0.18 0.11 0.06 0.05 0.05 0.07 0.13 0.18 0.19 0.20 0.18 0.17 0.13 0.08 0.04 0.03 0.02 0.01 0.01 0.00 0.00 0.00 0.00 0.00
0.00 0.01 0.02 0.06 0.12 0.11 0.12 0.15 0.21 0.30 0.35 0.34 0.36 0.39 0.21 0.14 0.16 0.15 0.15 0.12 0.07 0.05 0.03 0.02 0.02 0.03 0.05 0.08 0.11 0.13 0.13 0.13 0.10 0.06 0.03 0.02 0.01 0.01 0.00 0.00 0.00 0.00 0.00 0.00
0.00 0.00 0.02 0.06 0.08 0.07 0.09 0.13 0.17 0.24 0.31 0.27 0.23 0.26 0.29 0.24 0.20 0.16 0.12 0.09 0.06 0.03 0.02 0.01 0.01 0.01 0.02 0.04 0.07 0.10 0.09 0.07 0.06 0.04 0.03 0.03 0.03 0.02 0.01 0.00 0.00 0.00 0.00 0.00
0.00 0.01 0.02 0.02 0.02 0.02 0.04 0.07 0.11 0.16 0.18 0.21 0.19 0.23 0.30 0.27 0.20 0.14 0.10 0.08 0.07 0.06 0.03 0.02 0.01 0.01 0.01 0.04 0.08 0.13 0.13 0.10 0.06 0.06 0.06 0.07 0.05 0.04 0.02 0.01 0.00 0.00 0.00 0.00
0.00 0.01 0.03 0.05 0.06 0.09 0.12 0.13 0.11 0.11 0.10 0.12 0.15 0.22 0.21 0.19 0.16 0.14 0.12 0.10 0.08 0.06 0.05 0.04 0.03 0.02 0.01 0.02 0.03 0.08 0.12 0.12 0.09 0.09 0.09 0.07 0.06 0.05 0.04 0.03 0.02 0.02 0.01 0.00
0.01 0.01 0.02 0.05 0.12 0.16 0.17 0.14 0.21 0.24 0.19 0.18 0.26 0.27 0.19 0.13 0.09 0.07 0.07 0.08 0.08 0.06 0.05 0.05 0.05 0.04 0.03 0.03 0.04 0.06 0.08 0.08 0.08 0.08 0.08 0.08 0.09 0.08 0.08 0.06 0.05 0.05 0.04 0.02
0.01 0.01 0.03 0.06 0.16 0.22 0.15 0.04 0.05 0.10 0.12 0.13 0.17 0.16 0.12 0.09 0.05 0.03 0.02 0.03 0.04 0.03 0.03 0.03 0.04 0.04 0.04 0.04 0.06 0.06 0.07 0.08 0.08 0.11 0.14 0.16 0.17 0.15 0.14 0.14 0.11 0.09 0.06 0.04
0.00 0.00 0.02 0.05 0.10 0.11 0.08 0.03 0.01 0.04 0.05 0.01 0.03 0.03 0.02 0.01 0.03 0.05 0.02 0.01 0.02 0.02 0.03 0.03 0.02 0.04 0.06 0.06 0.07 0.07 0.09 0.10 0.11 0.12 0.17 0.23 0.24 0.20 0.18 0.17 0.14 0.12 0.10 0.07
0.00 0.00 0.01 0.03 0.08 0.10 0.04 0.01 0.00 0.02 0.07 0.01 0.01 0.02 0.02 0.04 0.10 0.13 0.04 0.00 0.00 0.03 0.07 0.07 0.06 0.08 0.12 0.10 0.08 0.10 0.11 0.13 0.15 0.17 0.22 0.26 0.25 0.21 0.19 0.17 0.14 0.12 0.12 0.10
0.00 0.00 0.00 0.01 0.04 0.04 0.01 0.01 0.01 0.05 0.10 0.01 0.00 0.01 0.01 0.04 0.08 0.07 0.01 0.00 0.01 0.02 0.07 0.10 0.13 0.19 0.18 0.13 0.12 0.14 0.14 0.15 0.17 0.20 0.23 0.30 0.30 0.20 0.16 0.16 0.14 0.12 0.12 0.11
0.00 0.00 0.00 0.01 0.03 0.02 0.00 0.00 0.01 0.02 0.01 0.00 0.00 0.00 0.00 0.01 0.01 0.02 0.02 0.01 0.02 0.03 0.06 0.12 0.21 0.24 0.20 0.19 0.22 0.23 0.22 0.20 0.20 0.21 0.22 0.27 0.28 0.21 0.16 0.17 0.16 0.14 0.14 0.14
0.00 0.00 0.00 0.00 0.00 0.00 0.00 0.00 0.00 0.00 0.00 0.00 0.00 0.00 0.00 0.00 0.01 0.01 0.01 0.03 0.06 0.07 0.08 0.09 0.14 0.16 0.16 0.20 0.25 0.32 0.33 0.26 0.23 0.22 0.24 0.24 0.25 0.25 0.20 0.17 0.17 0.16 0.14 0.15
0.00 0.00 0.00 0.00 0.00 0.00 0.00 0.00 0.00 0.00 0.00 0.00 0.00 0.00 0.00 0.00 0.00 0.00 0.00 0.01 0.04 0.06 0.04 0.02 0.04 0.08 0.12 0.13 0.17 0.24 0.28 0.27 0.25 0.23 0.26 0.29 0.28 0.30 0.27 0.23 0.22 0.22 0.19 0.18
0.00 0.00 0.00 0.00 0.00 0.00 0.00 0.00 0.00 0.00 0.00 0.00 0.00 0.00 0.00 0.00 0.00 0.00 0.00 0.00 0.01 0.03 0.02 0.02 0.04 0.07 0.09 0.10 0.10 0.10 0.12 0.17 0.20 0.21 0.28 0.34 0.33 0.32 0.29 0.24 0.22 0.23 0.23 0.21
0.00 0.00 0.00 0.00 0.00 0.00 0.00 0.00 0.00 0.00 0.00 0.00 0.00 0.00 0.00 0.00 0.00 0.00 0.00 0.00 0.00 0.01 0.01 0.01 0.01 0.03 0.03 0.04 0.04 0.05 0.08 0.11 0.17 0.20 0.20 0.22 0.24 0.24 0.24 0.22 0.17 0.13 0.11 0.10